TimeCDT,TemperatureF,Dew PointF,Humidity,Sea Level PressureIn,VisibilityMPH,Wind Direction,Wind SpeedMPH,Gust SpeedMPH,PrecipitationIn,Events,Conditions,WindDirDegrees,DateUTC
12:53 AM,46.9,33.1,59,29.83,10.0,North,4.6,-,N/A,,Clear,10,2012-10-09 05:53:00
1:53 AM,45.0,33.1,63,29.83,10.0,East,3.5,-,N/A,,Clear,80,2012-10-09 06:53:00
2:53 AM,39.2,28.4,65,29.85,10.0,Calm,Calm,-,N/A,,Clear,0,2012-10-09 07:53:00
3:53 AM,37.9,30.9,76,29.83,10.0,NNW,4.6,-,N/A,,Clear,340,2012-10-09 08:53:00
4:53 AM,43.0,35.1,74,29.82,10.0,NNW,6.9,-,N/A,,Clear,340,2012-10-09 09:53:00
5:53 AM,44.1,36.0,73,29.85,10.0,North,8.1,-,N/A,,Clear,350,2012-10-09 10:53:00
6:53 AM,46.9,39.9,77,29.87,10.0,North,11.5,-,N/A,,Clear,360,2012-10-09 11:53:00
7:53 AM,48.9,41.0,74,29.90,10.0,North,16.1,-,N/A,,Clear,360,2012-10-09 12:53:00
8:53 AM,50.0,39.0,66,29.93,10.0,North,26.5,32.2,N/A,,Clear,360,2012-10-09 13:53:00
9:53 AM,50.0,37.0,61,29.98,10.0,North,24.2,29.9,N/A,,Clear,360,2012-10-09 14:53:00
10:53 AM,51.1,37.0,59,30.03,10.0,North,26.5,35.7,N/A,,Scattered Clouds,350,2012-10-09 15:53:00
11:53 AM,52.0,33.1,49,30.04,10.0,North,20.7,-,N/A,,Clear,350,2012-10-09 16:53:00
12:53 PM,53.1,24.1,32,30.05,10.0,North,21.9,28.8,N/A,,Clear,350,2012-10-09 17:53:00
1:53 PM,54.0,19.0,25,30.05,10.0,NNW,20.7,26.5,N/A,,Clear,330,2012-10-09 18:53:00
2:53 PM,54.0,21.0,28,30.05,10.0,North,18.4,27.6,N/A,,Clear,350,2012-10-09 19:53:00
3:53 PM,57.9,21.0,24,30.05,10.0,North,23.0,27.6,N/A,,Clear,350,2012-10-09 20:53:00
4:53 PM,55.9,21.9,27,30.05,10.0,NNW,18.4,26.5,N/A,,Clear,340,2012-10-09 21:53:00
5:53 PM,55.9,23.0,28,30.06,10.0,North,15.0,29.9,N/A,,Clear,350,2012-10-09 22:53:00
6:53 PM,52.0,23.0,32,30.09,10.0,NNW,12.7,-,N/A,,Clear,340,2012-10-09 23:53:00
7:53 PM,48.0,24.1,39,30.11,10.0,NW,5.8,-,N/A,,Clear,320,2012-10-10 00:53:00
8:53 PM,42.1,23.0,47,30.15,10.0,NW,6.9,-,N/A,,Clear,320,2012-10-10 01:53:00
9:53 PM,43.0,23.0,45,30.17,10.0,NNW,6.9,-,N/A,,Clear,340,2012-10-10 02:53:00
10:53 PM,36.0,21.9,57,30.19,10.0,West,3.5,-,N/A,,Partly Cloudy,260,2012-10-10 03:53:00
11:53 PM,36.0,21.9,57,30.21,10.0,WNW,6.9,-,N/A,,Clear,290,2012-10-10 04:53:00